Weather History for Pensacola, FL

Change the Weather History Date:

Friday, November 16, 2012

  Actual Average Record
Temperature  
Mean Temperature 51 °F 61 °F  
Max Temperature 55 °F 70 °F 83 °F (1955)
Min Temperature 47 °F 51 °F 25 °F (1940)
Degree Days  
Heating Degree Days 14 6  
Month to date heating degree days 83 68  
Since 1 July heating degree days 112 106  
Cooling Degree Days 0 1  
Month to date cooling degree days 25 32  
Year to date cooling degree days 3029 2582  
Moisture  
Dew Point 45 °F    
Average Humidity 83    
Maximum Humidity 93    
Minimum Humidity 72    
Precipitation  
Precipitation 0.00 in 0.17 in 1.54 in (1927)
Month to date precipitation 0.34 2.58  
Year to date precipitation 63.65 58.57  
Snow  
Snow 0.00 in 0.00 in 0.00 in (2002)
Month to date snowfall 0.0 0.0  
Since 1 July snowfall 0.0 0.0  
Snow Depth 0.00 in    
Sea Level Pressure  
Sea Level Pressure 30.25 in    
Wind  
Wind Speed 5 mph (NNE)    
Max Wind Speed 12 mph    
Max Gust Speed 16 mph    
Visibility 10 miles    
Events      
T = Trace of Precipitation, MM = Missing Value Source: NWS Daily Summary

Daily Weather History Graph

Daily Weather History Graph

Search for Another Location

Airport:

Trip Planner

Search our weather history database for the weather conditions in past years. The results will help you decide how hot, cold, wet, or windy it might be!

Date:

Astronomy

Nov. 16, 2012 Rise Set
Actual Time 6:15 AM CST 4:51 PM CST
Civil Twilight 5:50 AM CST 5:16 PM CST
Nautical Twilight 5:21 AM CST 5:45 PM CST
Astronomical Twilight 4:52 AM CST 6:14 PM CST
Moon 9:06 AM CST (11/16) 7:52 PM CST (11/16)
Length of Visible Light 11h 26m
Length of Day
10h 35m
Waxing Crescent, 12% of the Moon is Illuminated
Nov 16
Waxing Crescent
Nov 20
First Quarter
Nov 28
Full
Dec 6
Last Quarter
Dec 13
New

Hourly Weather History & Observations

Time (CST) Temp. Dew Point Humidity Pressure Visibility Wind Dir Wind Speed Gust Speed Precip Events Conditions
12:53 AM 48.0 °F 44.1 °F 86% 30.25 in 10.0 mi NNE 5.8 mph - N/A   Clear
1:53 AM 48.0 °F 44.1 °F 86% 30.23 in 10.0 mi NE 3.5 mph - N/A   Clear
2:53 AM 48.0 °F 44.1 °F 86% 30.23 in 10.0 mi NE 3.5 mph - N/A   Partly Cloudy
3:08 AM 48.2 °F 44.6 °F 87% 30.22 in 10.0 mi NE 3.5 mph - N/A   Mostly Cloudy
3:53 AM 48.9 °F 44.1 °F 83% 30.22 in 10.0 mi NNE 3.5 mph - N/A   Overcast
4:12 AM 48.2 °F 44.6 °F 87% 30.21 in 10.0 mi NE 4.6 mph - N/A   Overcast
4:53 AM 48.9 °F 44.1 °F 83% 30.23 in 10.0 mi NNE 4.6 mph - N/A   Overcast
5:53 AM 48.9 °F 44.1 °F 83% 30.25 in 10.0 mi North 6.9 mph - N/A   Overcast
6:53 AM 48.9 °F 44.1 °F 83% 30.27 in 10.0 mi NE 5.8 mph - N/A   Overcast
7:26 AM 48.2 °F 44.6 °F 87% 30.26 in 10.0 mi NNE 5.8 mph - N/A   Overcast
7:53 AM 48.9 °F 45.0 °F 86% 30.27 in 10.0 mi North 6.9 mph - N/A   Overcast
8:53 AM 50.0 °F 45.0 °F 83% 30.29 in 9.0 mi Variable 6.9 mph - N/A   Overcast
9:53 AM 50.0 °F 45.0 °F 83% 30.29 in 10.0 mi NNE 5.8 mph - N/A   Overcast
10:53 AM 50.0 °F 45.0 °F 83% 30.29 in 10.0 mi NNE 5.8 mph - N/A   Overcast
11:53 AM 51.1 °F 45.0 °F 80% 30.27 in 10.0 mi NNE 9.2 mph - N/A   Overcast
12:53 PM 52.0 °F 46.0 °F 80% 30.25 in 10.0 mi NNE 5.8 mph - N/A   Overcast
1:53 PM 53.1 °F 46.0 °F 77% 30.24 in 10.0 mi North 10.4 mph - N/A   Overcast
2:53 PM 54.0 °F 46.0 °F 75% 30.24 in 10.0 mi NNE 9.2 mph 16.1 mph N/A   Overcast
3:40 PM 55.4 °F 46.4 °F 72% 30.23 in 10.0 mi NNE 9.2 mph - N/A   Overcast
3:53 PM 55.0 °F 46.9 °F 74% 30.24 in 10.0 mi NNE 6.9 mph - N/A   Overcast
4:36 PM 53.6 °F 46.4 °F 77% 30.22 in 10.0 mi Calm Calm - N/A   Scattered Clouds
4:53 PM 53.1 °F 46.0 °F 77% 30.23 in 10.0 mi Calm Calm - N/A   Clear
5:53 PM 50.0 °F 46.0 °F 86% 30.24 in 10.0 mi Calm Calm - N/A   Clear
6:53 PM 48.9 °F 46.0 °F 90% 30.25 in 10.0 mi Calm Calm - N/A   Clear
7:53 PM 46.9 °F 44.1 °F 90% 30.26 in 10.0 mi NW 5.8 mph - N/A   Clear
8:53 PM 48.0 °F 45.0 °F 89% 30.27 in 10.0 mi NNW 4.6 mph - N/A   Clear
9:53 PM 46.9 °F 44.1 °F 90% 30.28 in 10.0 mi North 5.8 mph - N/A   Clear
10:53 PM 48.0 °F 44.1 °F 86% 30.28 in 10.0 mi North 5.8 mph - N/A   Clear
11:53 PM 48.0 °F 45.0 °F 89% 30.27 in 10.0 mi North 5.8 mph - N/A   Clear